TimeMDT,TemperatureF,Dew PointF,Humidity,Sea Level PressureIn,VisibilityMPH,Wind Direction,Wind SpeedMPH,Gust SpeedMPH,PrecipitationIn,Events,Conditions,WindDirDegrees,DateUTC
12:16 AM,62.6,44.6,52,30.24,10.0,North,9.2,-,N/A,,Overcast,10,2013-07-07 06:16:00
12:36 AM,59.0,48.2,67,30.25,10.0,East,3.5,-,N/A,Rain,Light Rain,100,2013-07-07 06:36:00
12:55 AM,59.0,50.0,72,30.21,10.0,ENE,11.5,-,0.01,Rain,Light Rain,60,2013-07-07 06:55:00
1:16 AM,59.0,46.4,63,30.25,10.0,ENE,4.6,-,N/A,,Overcast,70,2013-07-07 07:16:00
1:36 AM,59.0,48.2,67,30.25,10.0,Calm,Calm,-,N/A,,Overcast,0,2013-07-07 07:36:00
1:56 AM,59.0,50.0,72,30.26,10.0,SSE,3.5,-,N/A,,Mostly Cloudy,150,2013-07-07 07:56:00
2:16 AM,55.4,50.0,82,30.26,10.0,Calm,Calm,-,N/A,,Clear,0,2013-07-07 08:16:00
2:36 AM,55.4,50.0,82,30.26,10.0,ENE,3.5,-,N/A,,Scattered Clouds,70,2013-07-07 08:36:00
2:56 AM,55.4,50.0,82,30.27,10.0,Calm,Calm,-,N/A,,Mostly Cloudy,0,2013-07-07 08:56:00
3:16 AM,53.6,50.0,88,30.27,10.0,Calm,Calm,-,N/A,,Mostly Cloudy,0,2013-07-07 09:16:00
3:36 AM,53.6,50.0,88,30.27,10.0,Calm,Calm,-,N/A,,Scattered Clouds,0,2013-07-07 09:36:00
3:56 AM,51.8,48.2,88,30.27,10.0,Calm,Calm,-,N/A,,Clear,0,2013-07-07 09:56:00
4:16 AM,51.8,48.2,88,30.28,10.0,Calm,Calm,-,N/A,,Clear,0,2013-07-07 10:16:00
4:35 AM,51.8,46.4,82,30.29,10.0,Calm,Calm,-,N/A,,Clear,0,2013-07-07 10:35:00
4:56 AM,51.8,46.4,82,30.29,10.0,Calm,Calm,-,N/A,,Clear,0,2013-07-07 10:56:00
5:16 AM,50.0,46.4,87,30.29,10.0,Calm,Calm,-,N/A,,Clear,0,2013-07-07 11:16:00
5:36 AM,50.0,46.4,87,30.30,10.0,North,3.5,-,N/A,,Clear,350,2013-07-07 11:36:00
5:56 AM,50.0,46.4,87,30.31,10.0,Calm,Calm,-,N/A,,Clear,0,2013-07-07 11:56:00
6:16 AM,50.0,46.4,87,30.31,10.0,West,3.5,-,N/A,,Clear,270,2013-07-07 12:16:00
6:36 AM,50.0,44.6,82,30.32,10.0,NNE,3.5,-,N/A,,Clear,20,2013-07-07 12:36:00
6:56 AM,50.0,44.6,82,30.31,10.0,Calm,Calm,-,N/A,,Clear,0,2013-07-07 12:56:00
7:16 AM,51.8,46.4,82,30.32,10.0,Calm,Calm,-,N/A,,Clear,0,2013-07-07 13:16:00
7:36 AM,53.6,50.0,88,30.33,10.0,Calm,Calm,-,N/A,,Clear,0,2013-07-07 13:36:00
7:56 AM,55.4,48.2,77,30.33,10.0,Calm,Calm,-,N/A,,Clear,0,2013-07-07 13:56:00
8:16 AM,55.4,50.0,82,30.33,10.0,Calm,Calm,-,N/A,,Clear,0,2013-07-07 14:16:00
8:36 AM,57.2,48.2,72,30.33,10.0,WSW,3.5,-,N/A,,Clear,250,2013-07-07 14:36:00
8:56 AM,59.0,50.0,72,30.34,10.0,WSW,4.6,-,N/A,,Clear,250,2013-07-07 14:56:00
9:16 AM,60.8,48.2,63,30.34,10.0,Calm,Calm,-,N/A,,Clear,0,2013-07-07 15:16:00
9:36 AM,60.8,48.2,63,30.33,10.0,WSW,3.5,-,N/A,,Clear,240,2013-07-07 15:36:00
9:56 AM,62.6,48.2,59,30.32,10.0,Calm,Calm,-,N/A,,Clear,0,2013-07-07 15:56:00
10:16 AM,69.8,51.8,53,30.32,10.0,NNE,3.5,-,N/A,,Clear,30,2013-07-07 16:16:00
10:36 AM,69.8,46.4,43,30.31,10.0,Calm,Calm,-,N/A,,Clear,0,2013-07-07 16:36:00
10:56 AM,71.6,48.2,43,30.31,10.0,ENE,4.6,-,N/A,,Clear,70,2013-07-07 16:56:00
11:16 AM,71.6,46.4,41,30.31,10.0,Calm,Calm,-,N/A,,Clear,0,2013-07-07 17:16:00
11:36 AM,73.4,46.4,38,30.30,10.0,Calm,Calm,-,N/A,,Clear,0,2013-07-07 17:36:00
11:56 AM,77.0,42.8,29,30.29,10.0,ESE,3.5,-,N/A,,Clear,110,2013-07-07 17:56:00
12:15 PM,78.8,42.8,28,30.29,10.0,West,4.6,-,N/A,,Clear,260,2013-07-07 18:15:00
12:36 PM,78.8,41.0,26,30.28,10.0,SE,5.8,-,N/A,,Clear,140,2013-07-07 18:36:00
12:56 PM,78.8,37.4,23,30.27,10.0,South,3.5,-,N/A,,Clear,180,2013-07-07 18:56:00
1:15 PM,82.4,35.6,19,30.26,10.0,SSE,3.5,-,N/A,,Clear,160,2013-07-07 19:15:00
1:36 PM,80.6,37.4,21,30.25,10.0,Calm,Calm,-,N/A,,Scattered Clouds,0,2013-07-07 19:36:00
1:55 PM,80.6,33.8,18,30.25,10.0,North,4.6,-,N/A,,Mostly Cloudy,10,2013-07-07 19:55:00
2:16 PM,77.0,37.4,24,30.26,10.0,North,10.4,-,N/A,Thunderstorm,Overcast,360,2013-07-07 20:16:00
2:35 PM,77.0,39.2,26,30.26,10.0,North,12.7,16.1,N/A,,Mostly Cloudy,360,2013-07-07 20:35:00
2:56 PM,73.4,37.4,27,30.25,10.0,North,5.8,-,N/A,Rain,Light Rain,10,2013-07-07 20:56:00
3:16 PM,77.0,42.8,29,30.25,10.0,NNW,3.5,-,N/A,Rain,Light Rain,340,2013-07-07 21:16:00
3:36 PM,73.4,44.6,36,30.25,10.0,Calm,Calm,-,N/A,,Overcast,0,2013-07-07 21:36:00
3:56 PM,78.8,42.8,28,30.24,10.0,SE,4.6,-,N/A,,Overcast,130,2013-07-07 21:56:00
4:16 PM,80.6,42.8,26,30.23,10.0,SE,3.5,-,N/A,,Scattered Clouds,140,2013-07-07 22:16:00
4:36 PM,78.8,42.8,28,30.23,10.0,NW,9.2,-,N/A,,Scattered Clouds,320,2013-07-07 22:36:00
4:56 PM,80.6,33.8,18,30.22,10.0,Calm,Calm,-,N/A,,Clear,0,2013-07-07 22:56:00
5:16 PM,80.6,35.6,20,30.22,10.0,NNW,3.5,-,N/A,,Clear,330,2013-07-07 23:16:00
5:35 PM,78.8,37.4,23,30.21,10.0,NNW,6.9,-,N/A,,Clear,330,2013-07-07 23:35:00
5:56 PM,77.0,37.4,24,30.21,10.0,NW,8.1,-,N/A,,Clear,310,2013-07-07 23:56:00
6:16 PM,77.0,33.8,21,30.21,10.0,NW,8.1,-,N/A,,Clear,310,2013-07-08 00:16:00
6:36 PM,78.8,33.8,20,30.21,10.0,WNW,4.6,-,N/A,,Clear,290,2013-07-08 00:36:00
6:55 PM,78.8,33.8,20,30.19,10.0,NNE,3.5,-,N/A,,Clear,30,2013-07-08 00:55:00
7:16 PM,78.8,32.0,18,30.19,10.0,Calm,Calm,-,N/A,,Clear,0,2013-07-08 01:16:00
7:36 PM,78.8,33.8,20,30.20,10.0,North,3.5,-,N/A,Thunderstorm,Clear,350,2013-07-08 01:36:00
7:56 PM,77.0,35.6,22,30.21,10.0,Calm,Calm,-,N/A,,Clear,0,2013-07-08 01:56:00
8:16 PM,73.4,35.6,25,30.21,10.0,Calm,Calm,-,N/A,,Clear,0,2013-07-08 02:16:00
8:36 PM,69.8,44.6,40,30.22,10.0,West,5.8,-,N/A,,Clear,270,2013-07-08 02:36:00
8:55 PM,69.8,42.8,38,30.22,10.0,Calm,Calm,-,N/A,,Clear,0,2013-07-08 02:55:00
9:16 PM,69.8,44.6,40,30.24,10.0,West,4.6,-,N/A,,Scattered Clouds,280,2013-07-08 03:16:00
9:35 PM,69.8,41.0,35,30.25,10.0,SSW,11.5,17.3,N/A,,Mostly Cloudy,200,2013-07-08 03:35:00
9:56 PM,69.8,41.0,35,30.27,10.0,SSW,18.4,31.1,N/A,,Overcast,210,2013-07-08 03:56:00
10:16 PM,60.8,46.4,59,30.32,7.0,SW,19.6,39.1,0.01,Rain-Thunderstorm,Light Thunderstorms and Rain,230,2013-07-08 04:16:00
10:36 PM,62.6,44.6,52,30.30,10.0,SSW,9.2,25.3,0.01,Rain,Rain,210,2013-07-08 04:36:00
10:56 PM,62.6,44.6,52,30.27,10.0,SSW,12.7,18.4,0.01,Rain,Light Rain,210,2013-07-08 04:56:00
11:16 PM,59.0,48.2,67,30.29,10.0,South,12.7,18.4,N/A,,Mostly Cloudy,190,2013-07-08 05:16:00
11:36 PM,62.6,44.6,52,30.31,10.0,South,3.5,-,N/A,,Scattered Clouds,170,2013-07-08 05:36:00
11:56 PM,60.8,46.4,59,30.31,10.0,SSW,3.5,-,N/A,,Clear,200,2013-07-08 05:56:00